Regional Weather Roundup
Issued by NWS

Home | Current Version | Previous Version | Text Only | Print | Product List | Glossary Off
Versions: 1 2 3 4 5 6 7 8 9 10 11 12 13 14 15 16 17 18 19 20 21 22 23 24 25 26 27 28 29 30 31 32 33 34 35 36 37 38 39 40 41 42 43 44 45 46 47 48 49 50

000
ASUS43 KLSX 200007
RWRMO

WEATHER SUMMARY FOR MISSOURI
NATIONAL WEATHER SERVICE SPRINGFIELD MO
600 PM CST SUN FEB 19 2017

NOTE: "FAIR" INDICATES FEW OR NO CLOUDS BELOW 12,000 FEET WITH NO
       SIGNIFICANT WEATHER AND/OR OBSTRUCTIONS TO VISIBILITY.
       CURRENT SKY AND/OR WEATHER CONDITIONS ARE NOT AVAILABLE FOR
       CHILLICOTHE AND FARMINGTON.

MOZ001>031-035>038-043-044-053-054-200100-
...NORTHERN AND WESTERN MISSOURI...

CITY           SKY/WX    TMP DP  RH WIND       PRES   REMARKS
KANSAS CTY INT CLOUDY    67  54  63 S8        29.88R
6HR MIN TEMP:  67; 6HR MAX TEMP:  74;

KANSAS C DTWN  CLEAR     72  55  55 S8G17     29.87R
6HR MIN TEMP:  68; 6HR MAX TEMP:  77;

LEE`S SUMMIT   CLEAR     70  55  59 S8        29.89S
6HR MIN TEMP:  66; 6HR MAX TEMP:  75;

ST JOSEPH      PTCLDY    69  55  60 S9        29.86S
6HR MIN TEMP:  66; 6HR MAX TEMP:  74;

CHILLICOTHE      N/A     71  46  40 S6        29.91R
6HR MIN TEMP:  66; 6HR MAX TEMP:  75;

KIRKSVILLE     PTCLDY    63  47  55 SE8       29.94S
6HR MIN TEMP:  63; 6HR MAX TEMP:  73;


$$
MOZ066>068-077>081-088>096-101>105-200100-
...SOUTHWEST MISSOURI...

CITY           SKY/WX    TMP DP  RH WIND       PRES   REMARKS
SPRINGFIELD    CLEAR     69  56  62 SE10      29.94R
6HR MIN TEMP:  69; 6HR MAX TEMP:  75;

JOPLIN         CLEAR     72  49  44 S13       29.91R
6HR MIN TEMP:  71; 6HR MAX TEMP:  78;

BRANSON        PTCLDY    68  55  64 SE13      29.98R

$$
MOZ032>034-039>042-045>050-055>058-069>072-200100-
...CENTRAL MISSOURI...

CITY           SKY/WX    TMP DP  RH WIND       PRES   REMARKS
COLUMBIA       CLEAR     71  46  40 SE7       29.95S
6HR MIN TEMP:  69; 6HR MAX TEMP:  77;

JEFFERSON CITY CLEAR     71  45  39 SE7       29.94R
6HR MIN TEMP:  65; 6HR MAX TEMP:  77;

ROLLA          CLEAR     67  47  48 SE9       29.97R
6HR MIN TEMP:  67; 6HR MAX TEMP:  76;

SEDALIA        CLEAR     71  50  47 S7        29.93R
6HR MIN TEMP:  71; 6HR MAX TEMP:  79;

WHITEMAN AFB   CLEAR     72  54  52 S7        29.90R
WARRENSBURG    PTCLDY    72  52  49 S5        29.90R
OSAGE BEACH    CLEAR     71  54  54 S7        29.96R

$$
MOZ051-052-059>065-200100-
...EAST CENTRAL MISSOURI...

CITY           SKY/WX    TMP DP  RH WIND       PRES   REMARKS
ST LOUIS INTL  PTCLDY    66  51  58 SE12      30.01F
6HR MIN TEMP:  66; 6HR MAX TEMP:  72;

SPIRIT OF STL  CLEAR     67  53  61 E8        29.99F
6HR MIN TEMP:  67; 6HR MAX TEMP:  74;

ST CHARLES     CLEAR     61  49  64 E9        30.01R
6HR MIN TEMP:  61; 6HR MAX TEMP:  72;


$$
MOZ072>076-082>087-097>100-106>115-200100-
...SOUTH CENTRAL AND SOUTHEAST MISSOURI...

CITY           SKY/WX    TMP DP  RH WIND       PRES   REMARKS
CAPE GIRARDEAU CLEAR     55  51  86 SE6       30.06F
6HR MIN TEMP:  55; 6HR MAX TEMP:  61;

FARMINGTON     CLEAR     64  50  60 SE9       30.04S
6HR MIN TEMP:  64; 6HR MAX TEMP:  72;

POPLAR BLUFF   CLEAR     63  58  83 SE3       30.05R
6HR MIN TEMP:  55; 6HR MAX TEMP:  68;

WEST PLAINS    CLEAR     65  56  72 S6        30.02S
6HR MIN TEMP:  61; 6HR MAX TEMP:  67;


$$



USA.gov is the U.S. government's official web portal to all federal, state and local government web resources and services.